Find Globalstar M055

NORAD ID: 25910 Int'l Des: 1999-049 Owner: GLOBT Country: US Constellation: globalstar operational
LEOCIRCULAR

当前视图

正在加载3D地球...

关于 Globalstar M055

正在加载描述...

即将过境

Passes for default location (London). Set your location on the main map for personalized predictions.

高度历史

Loading altitude history...

两行轨道根数

1 25910U 99049D 26149.83832133 -.00000099 00000-0 -44630-4 0 9992
2 25910 52.0017 87.0406 0006855 128.2144 231.9325 12.29444533210921
Epoch: May 29, 2026 • Age: 14 hours

当前状态

高度 1562.6 km
速度 7.08 km/s
星下点 -21.51°S, 35.24°E
发射日期 Sep 22, 1999
运行时间 26.6 years
类型 communications

技术详情

分类 Payload
质量 450.00 kg
干质量 380.00 kg
总质量 450.00 kg
长度 1.50 m
直径 0.60 m
跨度 12.00 m
形状 Box + 2 Pan
制造商 LOR
平台类型 LS-400
阶段状态 In Orbit
所有者/国家 GLOBT/US

Most Searched